| time (UTC) | temp C | wind direction | speed KPH | gust KPH | rain 1hr cm | rain 24hr cm | rain mn cm | humidity % | barometer mb |
| 20260507220908 | 8 | 279 | 1.6 | 1.6 | 0.00 | 0.30 | 0.30 | 99 | 1005.2 |
| 20260507220407 | 8 | 26 | 0.0 | 0.0 | 0.00 | 0.30 | 0.30 | 99 | 1005.1 |
| 20260507215903 | 8 | 28 | 0.0 | 0.0 | 0.00 | 0.30 | 0.30 | 99 | 1005.2 |
| 20260507215400 | 8 | 231 | 0.0 | 1.6 | 0.00 | 0.30 | 0.30 | 99 | 1005.1 |
| 20260507214857 | 8 | 339 | 0.0 | 0.0 | 0.00 | 0.30 | 0.30 | 99 | 1005.2 |
| 20260507214354 | 7 | 53 | 1.6 | 1.6 | 0.00 | 0.30 | 0.30 | 99 | 1005.2 |
| 20260507213850 | 7 | 291 | 0.0 | 0.0 | 0.00 | 0.30 | 0.30 | 99 | 1005.2 |
| 20260507213347 | 7 | 359 | 0.0 | 0.0 | 0.00 | 0.30 | 0.30 | 99 | 1005.3 |
| 20260507212844 | 8 | 64 | 0.0 | 1.6 | 0.00 | 0.30 | 0.30 | 99 | 1005.2 |
| 20260507212339 | 8 | 147 | 8.0 | 11.3 | 0.00 | 0.30 | 0.30 | 99 | 1005.3 |
| 20260507211836 | 8 | 127 | 1.6 | 3.2 | 0.00 | 0.30 | 0.30 | 99 | 1005.2 |
| 20260507211332 | 8 | 112 | 3.2 | 3.2 | 0.00 | 0.30 | 0.30 | 99 | 1004.9 |
| 20260507210829 | 8 | 67 | 3.2 | 3.2 | 0.00 | 0.30 | 0.30 | 99 | 1005.1 |
| 20260507210326 | 8 | 96 | 3.2 | 4.8 | 0.00 | 0.30 | 0.30 | 99 | 1004.9 |
| 20260507205823 | 8 | 267 | 3.2 | 3.2 | 0.00 | 0.30 | 0.30 | 99 | 1004.9 |
| 20260507205321 | 8 | 170 | 1.6 | 1.6 | 0.00 | 0.30 | 0.30 | 99 | 1005.1 |
| 20260507204816 | 7 | 346 | 1.6 | 1.6 | 0.00 | 0.30 | 0.30 | 99 | 1005.1 |
| 20260507204314 | 7 | 136 | 3.2 | 3.2 | 0.00 | 0.30 | 0.30 | 99 | 1005.1 |
| 20260507203812 | 8 | 22 | 1.6 | 3.2 | 0.00 | 0.30 | 0.30 | 99 | 1005.0 |
| 20260507203309 | 8 | 119 | 3.2 | 3.2 | 0.00 | 0.30 | 0.30 | 99 | 1004.9 |
| 20260507202805 | 8 | 181 | 1.6 | 1.6 | 0.00 | 0.30 | 0.30 | 99 | 1005.2 |
| 20260507202301 | 7 | 85 | 3.2 | 4.8 | 0.00 | 0.30 | 0.30 | 99 | 1005.2 |
| 20260507201755 | 7 | 114 | 0.0 | 1.6 | 0.00 | 0.30 | 0.30 | 99 | 1005.2 |
| 20260507201252 | 7 | 79 | 1.6 | 1.6 | 0.00 | 0.30 | 0.30 | 99 | 1005.1 |
| 20260507200749 | 8 | 357 | 1.6 | 1.6 | 0.00 | 0.30 | 0.30 | 99 | 1005.4 |
| 20260507200245 | 8 | 98 | 1.6 | 1.6 | 0.00 | 0.30 | 0.30 | 99 | 1005.4 |
| 20260507195741 | 8 | 122 | 1.6 | 3.2 | 0.00 | 0.30 | 0.30 | 99 | 1005.2 |
| 20260507195240 | 8 | 2 | 0.0 | 1.6 | 0.00 | 0.30 | 0.30 | 99 | 1005.2 |
| 20260507194737 | 8 | 345 | 1.6 | 1.6 | 0.00 | 0.30 | 0.30 | 99 | 1005.3 |
| 20260507194232 | 7 | 313 | 0.0 | 0.0 | 0.00 | 0.30 | 0.30 | 99 | 1005.8 |
| 20260507193729 | 7 | 297 | 0.0 | 1.6 | 0.00 | 0.30 | 0.30 | 99 | 1005.4 |
| 20260507193226 | 7 | 63 | 1.6 | 3.2 | 0.00 | 0.30 | 0.30 | 99 | 1005.6 |
| 20260507192722 | 7 | 92 | 6.4 | 6.4 | 0.00 | 0.30 | 0.30 | 99 | 1005.8 |
| 20260507192219 | 7 | 157 | 3.2 | 3.2 | 0.00 | 0.30 | 0.30 | 99 | 1005.7 |
| 20260507191714 | 8 | 16 | 1.6 | 1.6 | 0.00 | 0.30 | 0.30 | 99 | 1005.8 |
| 20260507191212 | 8 | 298 | 3.2 | 3.2 | 0.00 | 0.30 | 0.30 | 99 | 1005.5 |
| 20260507190709 | 7 | 326 | 1.6 | 3.2 | 0.00 | 0.30 | 0.30 | 99 | 1006.0 |
| 20260507190208 | 7 | 317 | 0.0 | 0.0 | 0.00 | 0.30 | 0.30 | 99 | 1005.8 |
| 20260507185706 | 7 | 194 | 3.2 | 4.8 | 0.00 | 0.30 | 0.30 | 99 | 1006.1 |
| 20260507185202 | 7 | 151 | 3.2 | 4.8 | 0.00 | 0.30 | 0.30 | 99 | 1006.0 |
| 20260507184700 | 7 | 105 | 8.0 | 9.7 | 0.00 | 0.30 | 0.30 | 99 | 1006.0 |
| 20260507184158 | 7 | 213 | 4.8 | 4.8 | 0.00 | 0.30 | 0.30 | 99 | 1006.1 |
| 20260507183654 | 7 | 142 | 1.6 | 1.6 | 0.00 | 0.30 | 0.30 | 99 | 1006.2 |
| 20260507183151 | 7 | 66 | 3.2 | 3.2 | 0.00 | 0.30 | 0.30 | 99 | 1006.0 |
| 20260507182648 | 8 | 243 | 8.0 | 9.7 | 0.00 | 0.30 | 0.30 | 99 | 1006.2 |
| 20260507182143 | 8 | 253 | 4.8 | 6.4 | 0.00 | 0.30 | 0.30 | 99 | 1006.1 |
| 20260507181639 | 8 | 279 | 3.2 | 3.2 | 0.00 | 0.30 | 0.30 | 99 | 1006.0 |
| 20260507181136 | 8 | 237 | 3.2 | 4.8 | 0.00 | 0.30 | 0.30 | 99 | 1006.2 |
| 20260507180632 | 7 | 259 | 3.2 | 3.2 | 0.00 | 0.30 | 0.30 | 99 | 1005.7 |
| 20260507180130 | 7 | 270 | 3.2 | 3.2 | 0.13 | 0.30 | 0.30 | 99 | 1006.2 |
| 20260507175625 | 7 | 303 | 6.4 | 6.4 | 0.13 | 0.30 | 0.30 | 99 | 1006.4 |
| 20260507175123 | 6 | 273 | 6.4 | 6.4 | 0.00 | 0.28 | 0.28 | 99 | 1006.2 |
| 20260507174620 | 6 | 253 | 6.4 | 6.4 | 0.00 | 0.28 | 0.28 | 99 | 1006.4 |
| 20260507174118 | 7 | 284 | 4.8 | 4.8 | 0.00 | 0.28 | 0.28 | 99 | 1006.0 |
| 20260507173615 | 7 | 290 | 6.4 | 6.4 | 0.00 | 0.28 | 0.28 | 99 | 1006.4 |
| 20260507173112 | 7 | 302 | 3.2 | 4.8 | 0.00 | 0.28 | 0.28 | 99 | 1006.4 |
| 20260507172607 | 6 | 278 | 6.4 | 6.4 | 0.00 | 0.28 | 0.28 | 99 | 1006.5 |
| 20260507172106 | 7 | 270 | 3.2 | 3.2 | 0.00 | 0.28 | 0.28 | 99 | 1006.7 |
| 20260507171600 | 6 | 291 | 6.4 | 6.4 | 0.00 | 0.28 | 0.28 | 99 | 1006.6 |
| 20260507171057 | 6 | 250 | 4.8 | 4.8 | 0.00 | 0.28 | 0.28 | 99 | 1006.7 |
| 20260507170554 | 6 | 249 | 3.2 | 3.2 | 0.00 | 0.28 | 0.28 | 99 | 1006.6 |
| 20260507170051 | 6 | 297 | 4.8 | 6.4 | 0.00 | 0.28 | 0.28 | 99 | 1006.8 |
| 20260507165547 | 6 | 266 | 4.8 | 4.8 | 0.00 | 0.28 | 0.28 | 99 | 1007.1 |
| 20260507165044 | 6 | 267 | 6.4 | 6.4 | 0.00 | 0.28 | 0.28 | 99 | 1006.8 |
| 20260507164540 | 6 | 342 | 3.2 | 3.2 | 0.00 | 0.28 | 0.28 | 99 | 1007.1 |
| 20260507164037 | 6 | 329 | 4.8 | 4.8 | 0.00 | 0.28 | 0.28 | 99 | 1006.9 |
| 20260507163534 | 6 | 320 | 3.2 | 4.8 | 0.00 | 0.28 | 0.28 | 99 | 1006.9 |
| 20260507163032 | 6 | 306 | 4.8 | 6.4 | 0.00 | 0.28 | 0.28 | 99 | 1007.1 |
| 20260507162526 | 6 | 309 | 6.4 | 6.4 | 0.00 | 0.28 | 0.28 | 99 | 1007.2 |
| 20260507162023 | 6 | 282 | 4.8 | 6.4 | 0.00 | 0.28 | 0.28 | 99 | 1007.1 |
| 20260507161520 | 5 | 269 | 4.8 | 6.4 | 0.00 | 0.28 | 0.28 | 99 | 1007.3 |
| 20260507161017 | 5 | 303 | 9.7 | 11.3 | 0.00 | 0.28 | 0.28 | 99 | 1007.2 |
| 20260507160512 | 5 | 284 | 6.4 | 6.4 | 0.00 | 0.28 | 0.28 | 99 | 1007.2 |
| 20260507160009 | 5 | 288 | 4.8 | 4.8 | 0.00 | 0.28 | 0.28 | 99 | 1007.4 |
| 20260507155504 | 5 | 293 | 4.8 | 4.8 | 0.00 | 0.28 | 0.28 | 99 | 1007.7 |
| 20260507155002 | 5 | 242 | 4.8 | 4.8 | 0.00 | 0.28 | 0.28 | 99 | 1007.9 |
| 20260507154458 | 5 | 277 | 9.7 | 11.3 | 0.18 | 0.28 | 0.28 | 99 | 1007.6 |
| 20260507153955 | 5 | 316 | 9.7 | 11.3 | 0.18 | 0.28 | 0.28 | 99 | 1007.8 |
| 20260507153452 | 5 | 298 | 9.7 | 12.9 | 0.18 | 0.25 | 0.25 | 99 | 1007.3 |
| 20260507152948 | 5 | 318 | 8.0 | 9.7 | 0.18 | 0.25 | 0.25 | 99 | 1007.7 |
| 20260507152444 | 5 | 277 | 12.9 | 12.9 | 0.00 | 0.23 | 0.23 | 99 | 1007.9 |
| 20260507151941 | 5 | 255 | 11.3 | 12.9 | 0.00 | 0.23 | 0.23 | 99 | 1007.7 |
| 20260507151437 | 5 | 158 | 11.3 | 14.5 | 0.00 | 0.23 | 0.23 | 99 | 1007.3 |
| 20260507150934 | 5 | 317 | 6.4 | 6.4 | 0.00 | 0.23 | 0.23 | 99 | 1007.4 |
| 20260507150431 | 5 | 316 | 6.4 | 6.4 | 0.00 | 0.23 | 0.23 | 99 | 1007.4 |
| 20260507145927 | 5 | 295 | 9.7 | 12.9 | 0.00 | 0.23 | 0.23 | 99 | 1007.8 |
| 20260507145423 | 5 | 304 | 11.3 | 14.5 | 0.00 | 0.23 | 0.23 | 99 | 1007.6 |
| 20260507144921 | 5 | 303 | 8.0 | 9.7 | 0.00 | 0.23 | 0.23 | 99 | 1007.4 |
| 20260507144417 | 5 | 298 | 9.7 | 11.3 | 0.13 | 0.23 | 0.23 | 99 | 1007.5 |
| 20260507143914 | 5 | 298 | 6.4 | 9.7 | 0.13 | 0.23 | 0.23 | 99 | 1007.8 |
| 20260507143412 | 5 | 289 | 9.7 | 11.3 | 0.00 | 0.20 | 0.20 | 99 | 1007.8 |
| 20260507142908 | 5 | 275 | 9.7 | 12.9 | 0.00 | 0.20 | 0.20 | 99 | 1007.9 |
| 20260507142404 | 5 | 293 | 11.3 | 12.9 | 0.00 | 0.20 | 0.20 | 99 | 1007.9 |
| 20260507141901 | 5 | 283 | 11.3 | 12.9 | 0.00 | 0.20 | 0.20 | 99 | 1007.9 |
| 20260507141357 | 5 | 275 | 9.7 | 11.3 | 0.00 | 0.20 | 0.20 | 99 | 1007.9 |
| 20260507140854 | 5 | 295 | 9.7 | 11.3 | 0.00 | 0.20 | 0.20 | 99 | 1007.9 |
| 20260507140351 | 5 | 270 | 4.8 | 6.4 | 0.00 | 0.20 | 0.20 | 99 | 1008.2 |
| 20260507135849 | 5 | 306 | 6.4 | 12.9 | 0.00 | 0.20 | 0.20 | 99 | 1008.0 |
| 20260507135345 | 5 | 277 | 11.3 | 14.5 | 0.00 | 0.20 | 0.20 | 99 | 1008.3 |
| 20260507134843 | 5 | 297 | 11.3 | 14.5 | 0.00 | 0.20 | 0.20 | 99 | 1008.2 |
| 20260507134339 | 5 | 281 | 9.7 | 11.3 | 0.00 | 0.20 | 0.20 | 99 | 1008.2 |
| 20260507133835 | 5 | 298 | 16.1 | 17.7 | 0.00 | 0.20 | 0.20 | 99 | 1008.3 |
| 20260507133330 | 5 | 260 | 14.5 | 14.5 | 0.00 | 0.20 | 0.20 | 99 | 1008.3 |
| 20260507132829 | 5 | 295 | 12.9 | 14.5 | 0.00 | 0.20 | 0.20 | 99 | 1008.5 |
| 20260507132325 | 5 | 258 | 14.5 | 16.1 | 0.00 | 0.20 | 0.20 | 99 | 1008.2 |
| 20260507131823 | 5 | 274 | 14.5 | 17.7 | 0.00 | 0.20 | 0.20 | 99 | 1008.2 |
| 20260507131319 | 5 | 328 | 12.9 | 14.5 | 0.00 | 0.20 | 0.20 | 99 | 1008.0 |
| 20260507130816 | 5 | 280 | 12.9 | 14.5 | 0.00 | 0.20 | 0.20 | 99 | 1008.3 |
| 20260507130313 | 5 | 307 | 12.9 | 14.5 | 0.00 | 0.20 | 0.20 | 99 | 1008.0 |
| 20260507125812 | 5 | 272 | 11.3 | 14.5 | 0.00 | 0.20 | 0.20 | 99 | 1007.9 |
| 20260507125309 | 5 | 280 | 11.3 | 12.9 | 0.00 | 0.20 | 0.20 | 99 | 1008.0 |
| 20260507124806 | 5 | 271 | 9.7 | 12.9 | 0.00 | 0.20 | 0.20 | 99 | 1008.3 |
| 20260507124302 | 5 | 296 | 12.9 | 14.5 | 0.00 | 0.20 | 0.20 | 99 | 1008.2 |
| 20260507123801 | 5 | 293 | 14.5 | 20.9 | 0.00 | 0.20 | 0.20 | 99 | 1008.0 |
| 20260507123258 | 5 | 263 | 14.5 | 20.9 | 0.00 | 0.20 | 0.20 | 99 | 1007.9 |
| 20260507122754 | 5 | 270 | 16.1 | 22.5 | 0.00 | 0.20 | 0.20 | 99 | 1008.2 |
| 20260507122249 | 5 | 257 | 11.3 | 16.1 | 0.00 | 0.20 | 0.20 | 99 | 1008.2 |
| 20260507121746 | 5 | 296 | 14.5 | 17.7 | 0.00 | 0.20 | 0.20 | 99 | 1008.2 |
| 20260507121241 | 5 | 253 | 11.3 | 17.7 | 0.00 | 0.20 | 0.20 | 99 | 1007.9 |
| 20260507120738 | 5 | 289 | 11.3 | 16.1 | 0.00 | 0.20 | 0.20 | 99 | 1007.7 |
| 20260507120235 | 5 | 301 | 8.0 | 9.7 | 0.00 | 0.20 | 0.20 | 99 | 1007.8 |
| 20260507115731 | 5 | 250 | 9.7 | 16.1 | 0.00 | 0.20 | 0.20 | 99 | 1007.9 |
| 20260507115227 | 5 | 297 | 12.9 | 16.1 | 0.00 | 0.20 | 0.20 | 99 | 1008.2 |
| 20260507114722 | 5 | 286 | 9.7 | 11.3 | 0.00 | 0.20 | 0.20 | 99 | 1007.8 |
| 20260507114220 | 5 | 275 | 12.9 | 16.1 | 0.00 | 0.20 | 0.20 | 99 | 1007.8 |
| 20260507113718 | 5 | 261 | 16.1 | 20.9 | 0.00 | 0.20 | 0.20 | 99 | 1008.0 |
| 20260507113214 | 5 | 292 | 12.9 | 16.1 | 0.00 | 0.20 | 0.20 | 99 | 1007.7 |
| 20260507112712 | 5 | 301 | 9.7 | 14.5 | 0.00 | 0.20 | 0.20 | 99 | 1007.8 |
| 20260507112209 | 5 | 292 | 11.3 | 16.1 | 0.00 | 0.20 | 0.20 | 99 | 1007.7 |
| 20260507111706 | 5 | 292 | 12.9 | 17.7 | 0.00 | 0.20 | 0.20 | 99 | 1007.8 |
| 20260507111203 | 5 | 303 | 16.1 | 17.7 | 0.00 | 0.20 | 0.20 | 99 | 1007.6 |
| 20260507110658 | 5 | 285 | 12.9 | 16.1 | 0.00 | 0.20 | 0.20 | 99 | 1007.6 |
| 20260507110156 | 5 | 323 | 14.5 | 17.7 | 0.00 | 0.20 | 0.20 | 99 | 1007.5 |
| 20260507105652 | 5 | 303 | 11.3 | 14.5 | 0.00 | 0.20 | 0.20 | 99 | 1007.5 |
| 20260507105148 | 5 | 274 | 11.3 | 12.9 | 0.00 | 0.20 | 0.20 | 99 | 1007.3 |
| 20260507104646 | 5 | 305 | 16.1 | 17.7 | 0.00 | 0.20 | 0.20 | 99 | 1007.7 |
| 20260507104142 | 5 | 295 | 11.3 | 12.9 | 0.00 | 0.20 | 0.20 | 99 | 1007.5 |
| 20260507103638 | 5 | 229 | 9.7 | 12.9 | 0.00 | 0.20 | 0.20 | 99 | 1007.3 |
| 20260507103135 | 6 | 315 | 8.0 | 11.3 | 0.00 | 0.20 | 0.20 | 99 | 1007.5 |
| 20260507102632 | 6 | 256 | 9.7 | 14.5 | 0.00 | 0.20 | 0.20 | 99 | 1007.4 |
| 20260507102128 | 6 | 278 | 6.4 | 9.7 | 0.00 | 0.20 | 0.20 | 99 | 1007.7 |
| 20260507101624 | 6 | 240 | 8.0 | 11.3 | 0.00 | 0.20 | 0.20 | 99 | 1007.5 |
| 20260507101120 | 6 | 246 | 8.0 | 14.5 | 0.00 | 0.20 | 0.20 | 99 | 1007.8 |
| 20260507100617 | 6 | 269 | 14.5 | 16.1 | 0.00 | 0.20 | 0.20 | 99 | 1007.6 |
| 20260507100115 | 6 | 241 | 11.3 | 14.5 | 0.00 | 0.20 | 0.20 | 99 | 1007.5 |
| 20260507095613 | 6 | 256 | 12.9 | 14.5 | 0.00 | 0.20 | 0.20 | 99 | 1007.4 |
| 20260507095109 | 6 | 243 | 4.8 | 4.8 | 0.00 | 0.20 | 0.20 | 99 | 1007.5 |
| 20260507094605 | 6 | 290 | 11.3 | 12.9 | 0.00 | 0.20 | 0.20 | 99 | 1007.3 |
| 20260507094103 | 6 | 277 | 6.4 | 9.7 | 0.00 | 0.20 | 0.20 | 99 | 1007.5 |
| 20260507093600 | 6 | 315 | 6.4 | 9.7 | 0.00 | 0.20 | 0.20 | 99 | 1007.2 |
| 20260507093059 | 6 | 317 | 1.6 | 3.2 | 0.00 | 0.20 | 0.20 | 99 | 1007.2 |
| 20260507092555 | 6 | 299 | 8.0 | 11.3 | 0.00 | 0.20 | 0.20 | 99 | 1007.2 |
| 20260507092051 | 6 | 278 | 6.4 | 6.4 | 0.00 | 0.20 | 0.20 | 99 | 1007.4 |
| 20260507091548 | 7 | 271 | 3.2 | 4.8 | 0.00 | 0.20 | 0.20 | 99 | 1007.4 |
| 20260507091044 | 7 | 253 | 6.4 | 9.7 | 0.00 | 0.20 | 0.20 | 99 | 1007.5 |
| 20260507090540 | 7 | 296 | 11.3 | 14.5 | 0.00 | 0.20 | 0.20 | 99 | 1007.6 |
| 20260507090037 | 7 | 264 | 6.4 | 6.4 | 0.00 | 0.20 | 0.20 | 99 | 1007.5 |
| 20260507085534 | 7 | 268 | 9.7 | 12.9 | 0.00 | 0.20 | 0.20 | 99 | 1007.4 |
| 20260507085031 | 7 | 280 | 8.0 | 11.3 | 0.00 | 0.20 | 0.20 | 99 | 1007.2 |
| 20260507084528 | 7 | 298 | 6.4 | 9.7 | 0.00 | 0.20 | 0.20 | 99 | 1007.4 |
| 20260507084025 | 7 | 265 | 8.0 | 9.7 | 0.00 | 0.20 | 0.20 | 99 | 1007.1 |
| 20260507083521 | 7 | 245 | 6.4 | 6.4 | 0.00 | 0.20 | 0.20 | 99 | 1006.9 |
| 20260507083018 | 7 | 248 | 12.9 | 14.5 | 0.00 | 0.20 | 0.20 | 99 | 1006.9 |
| 20260507082514 | 7 | 301 | 6.4 | 9.7 | 0.00 | 0.20 | 0.20 | 99 | 1007.1 |
| 20260507082010 | 7 | 316 | 12.9 | 17.7 | 0.00 | 0.20 | 0.20 | 99 | 1006.8 |
| 20260507081507 | 7 | 292 | 12.9 | 14.5 | 0.00 | 0.20 | 0.20 | 99 | 1007.1 |
| 20260507081004 | 8 | 260 | 17.7 | 20.9 | 0.00 | 0.20 | 0.20 | 99 | 1007.4 |
| 20260507080459 | 8 | 264 | 4.8 | 6.4 | 0.00 | 0.20 | 0.20 | 99 | 1007.4 |
| 20260507075955 | 8 | 246 | 9.7 | 12.9 | 0.00 | 0.20 | 0.20 | 99 | 1007.2 |
| 20260507075452 | 8 | 270 | 6.4 | 6.4 | 0.00 | 0.20 | 0.20 | 99 | 1007.1 |
| 20260507074948 | 8 | 280 | 9.7 | 16.1 | 0.00 | 0.20 | 0.20 | 99 | 1007.5 |
| 20260507074445 | 8 | 312 | 6.4 | 9.7 | 0.00 | 0.20 | 0.20 | 99 | 1007.3 |
| 20260507073943 | 8 | 277 | 6.4 | 9.7 | 0.00 | 0.20 | 0.20 | 99 | 1007.2 |
| 20260507073439 | 8 | 242 | 4.8 | 6.4 | 0.00 | 0.20 | 0.20 | 99 | 1007.2 |
| 20260507072936 | 9 | 266 | 6.4 | 11.3 | 0.00 | 0.20 | 0.20 | 99 | 1007.3 |
| 20260507072434 | 9 | 248 | 6.4 | 9.7 | 0.00 | 0.20 | 0.20 | 99 | 1007.1 |
| 20260507071931 | 9 | 277 | 6.4 | 9.7 | 0.00 | 0.20 | 0.20 | 99 | 1006.9 |
| 20260507071428 | 9 | 254 | 6.4 | 6.4 | 0.00 | 0.20 | 0.20 | 99 | 1006.8 |
| 20260507070924 | 9 | 251 | 8.0 | 9.7 | 0.00 | 0.20 | 0.20 | 99 | 1007.1 |
| 20260507070422 | 9 | 285 | 6.4 | 9.7 | 0.00 | 0.20 | 0.20 | 99 | 1007.4 |
| 20260507065918 | 9 | 297 | 4.8 | 4.8 | 0.00 | 0.20 | 0.20 | 99 | 1006.9 |
| 20260507065415 | 9 | 324 | 3.2 | 3.2 | 0.00 | 0.20 | 0.20 | 99 | 1007.1 |
| 20260507064912 | 10 | 316 | 1.6 | 3.2 | 0.00 | 0.20 | 0.20 | 99 | 1007.3 |
| 20260507064410 | 10 | 334 | 3.2 | 3.2 | 0.00 | 0.20 | 0.20 | 99 | 1007.1 |
| 20260507063908 | 10 | 263 | 1.6 | 3.2 | 0.00 | 0.20 | 0.20 | 99 | 1007.4 |
| 20260507063405 | 10 | 280 | 4.8 | 4.8 | 0.00 | 0.20 | 0.20 | 99 | 1007.4 |
| 20260507062902 | 10 | 292 | 1.6 | 3.2 | 0.00 | 0.20 | 0.20 | 99 | 1007.3 |
| 20260507062359 | 10 | 280 | 3.2 | 3.2 | 0.00 | 0.20 | 0.20 | 99 | 1007.4 |
| 20260507061856 | 10 | 273 | 3.2 | 3.2 | 0.00 | 0.20 | 0.20 | 99 | 1007.3 |
| 20260507061354 | 10 | 293 | 1.6 | 3.2 | 0.00 | 0.20 | 0.20 | 99 | 1007.3 |
| 20260507060853 | 10 | 315 | 4.8 | 4.8 | 0.00 | 0.20 | 0.20 | 99 | 1007.5 |
| 20260507060349 | 10 | 260 | 6.4 | 9.7 | 0.00 | 0.20 | 0.20 | 99 | 1007.7 |
| 20260507055846 | 10 | 287 | 6.4 | 6.4 | 0.00 | 0.20 | 0.20 | 99 | 1007.4 |
| 20260507055340 | 11 | 273 | 8.0 | 11.3 | 0.00 | 0.20 | 0.20 | 99 | 1007.7 |
| 20260507054838 | 10 | 244 | 6.4 | 6.4 | 0.00 | 0.20 | 0.20 | 99 | 1007.4 |
| 20260507054334 | 10 | 270 | 8.0 | 12.9 | 0.00 | 0.20 | 0.20 | 99 | 1007.6 |
| 20260507053831 | 11 | 275 | 9.7 | 12.9 | 0.00 | 0.20 | 0.20 | 99 | 1007.8 |
| 20260507053329 | 11 | 276 | 4.8 | 4.8 | 0.00 | 0.20 | 0.20 | 99 | 1007.6 |
| 20260507052828 | 12 | 277 | 6.4 | 9.7 | 0.00 | 0.20 | 0.20 | 99 | 1007.4 |
| 20260507052324 | 12 | 305 | 4.8 | 6.4 | 0.00 | 0.20 | 0.20 | 99 | 1007.3 |
| 20260507051822 | 12 | 294 | 6.4 | 6.4 | 0.00 | 0.20 | 0.20 | 99 | 1007.5 |
| 20260507051319 | 12 | 242 | 6.4 | 9.7 | 0.00 | 0.20 | 0.20 | 99 | 1007.4 |
| 20260507050816 | 12 | 246 | 4.8 | 6.4 | 0.00 | 0.20 | 0.20 | 99 | 1007.5 |
| 20260507050312 | 12 | 306 | 3.2 | 6.4 | 0.00 | 0.20 | 0.20 | 99 | 1007.5 |
| 20260507045809 | 12 | 164 | 3.2 | 4.8 | 0.00 | 0.20 | 0.20 | 99 | 1006.7 |
| 20260507045306 | 12 | 177 | 6.4 | 9.7 | 0.00 | 0.20 | 0.20 | 99 | 1006.4 |
| 20260507044803 | 12 | 99 | 6.4 | 9.7 | 0.00 | 0.20 | 0.20 | 99 | 1006.9 |
| 20260507044259 | 12 | 210 | 1.6 | 3.2 | 0.00 | 0.20 | 0.20 | 99 | 1007.2 |
| 20260507043755 | 12 | 231 | 3.2 | 4.8 | 0.00 | 0.20 | 0.20 | 99 | 1007.5 |
| 20260507043252 | 12 | 249 | 4.8 | 4.8 | 0.18 | 0.20 | 0.20 | 99 | 1007.8 |
| 20260507042748 | 12 | 279 | 4.8 | 4.8 | 0.18 | 0.20 | 0.20 | 99 | 1007.6 |
| 20260507042243 | 12 | 281 | 6.4 | 9.7 | 0.00 | 0.18 | 0.18 | 99 | 1007.7 |
| 20260507041741 | 12 | 305 | 6.4 | 6.4 | 0.30 | 0.18 | 0.18 | 99 | 1007.4 |
| 20260507041237 | 12 | 255 | 1.6 | 3.2 | 0.89 | 0.18 | 0.18 | 99 | 1007.7 |
| 20260507040735 | 12 | 285 | 14.5 | 16.1 | 1.02 | 0.13 | 0.13 | 99 | 1008.0 |
| 20260507040231 | 12 | 277 | 11.3 | 16.1 | 0.61 | 0.03 | 0.03 | 99 | 1007.9 |
| 20260507035727 | 13 | 227 | 8.0 | 11.3 | 0.36 | 0.66 | 0.66 | 99 | 1007.8 |
| 20260507035222 | 13 | 289 | 3.2 | 3.2 | 0.18 | 0.64 | 0.64 | 99 | 1007.9 |
| 20260507034720 | 13 | 359 | 0.0 | 1.6 | 0.00 | 0.61 | 0.61 | 99 | 1007.6 |
| 20260507034217 | 13 | 307 | 4.8 | 4.8 | 0.00 | 0.61 | 0.61 | 99 | 1007.8 |
| 20260507033715 | 13 | 267 | 3.2 | 4.8 | 0.00 | 0.61 | 0.61 | 99 | 1007.9 |
| 20260507033212 | 13 | 215 | 4.8 | 6.4 | 0.00 | 0.61 | 0.61 | 99 | 1007.9 |
| 20260507032710 | 13 | 274 | 4.8 | 6.4 | 0.00 | 0.61 | 0.61 | 99 | 1007.9 |
| 20260507032205 | 13 | 242 | 9.7 | 12.9 | 0.13 | 0.61 | 0.61 | 99 | 1008.3 |
| 20260507031702 | 13 | 283 | 8.0 | 11.3 | 0.71 | 0.61 | 0.61 | 99 | 1008.2 |
| 20260507031159 | 13 | 292 | 8.0 | 12.9 | 0.89 | 0.58 | 0.58 | 99 | 1008.0 |
| 20260507030656 | 13 | 239 | 6.4 | 9.7 | 0.30 | 0.48 | 0.48 | 99 | 1007.9 |
| 20260507030154 | 13 | 249 | 3.2 | 3.2 | 0.00 | 0.43 | 0.43 | 99 | 1007.6 |
| 20260507025651 | 13 | 262 | 3.2 | 4.8 | 0.00 | 0.43 | 0.43 | 99 | 1007.7 |
| 20260507025147 | 13 | 276 | 1.6 | 3.2 | 0.18 | 0.43 | 0.43 | 99 | 1007.6 |
| 20260507024645 | 13 | 262 | 3.2 | 4.8 | 0.18 | 0.43 | 0.43 | 99 | 1007.6 |
| 20260507024142 | 13 | 307 | 3.2 | 4.8 | 0.00 | 0.41 | 0.41 | 99 | 1007.7 |
| 20260507023638 | 14 | 259 | 8.0 | 9.7 | 1.19 | 0.41 | 0.41 | 99 | 1007.9 |
| 20260507023136 | 14 | 276 | 4.8 | 6.4 | 1.19 | 0.41 | 0.41 | 99 | 1007.7 |
| 20260507022632 | 15 | 292 | 4.8 | 9.7 | 0.13 | 0.23 | 0.23 | 98 | 1008.2 |
| 20260507022128 | 15 | 256 | 4.8 | 6.4 | 0.00 | 0.20 | 0.20 | 96 | 1007.4 |
| 20260507021624 | 15 | 216 | 4.8 | 6.4 | 0.00 | 0.20 | 0.20 | 96 | 1007.5 |
| 20260507021120 | 15 | 109 | 4.8 | 6.4 | 0.00 | 0.20 | 0.20 | 95 | 1007.7 |
| 20260507020619 | 15 | 235 | 3.2 | 4.8 | 0.00 | 0.20 | 0.20 | 95 | 1007.6 |
| 20260507020114 | 15 | 233 | 4.8 | 4.8 | 0.00 | 0.20 | 0.20 | 94 | 1007.9 |
| 20260507015613 | 15 | 63 | 1.6 | 1.6 | 0.00 | 0.20 | 0.20 | 94 | 1007.4 |
| 20260507015110 | 15 | 245 | 6.4 | 9.7 | 0.00 | 0.20 | 0.20 | 95 | 1007.5 |
| 20260507014607 | 15 | 294 | 1.6 | 3.2 | 0.00 | 0.20 | 0.20 | 95 | 1007.5 |
| 20260507014102 | 15 | 155 | 6.4 | 9.7 | 0.00 | 0.20 | 0.20 | 95 | 1007.1 |
| 20260507013559 | 15 | 77 | 3.2 | 3.2 | 0.00 | 0.20 | 0.20 | 95 | 1006.9 |
| 20260507013056 | 15 | 353 | 1.6 | 3.2 | 0.00 | 0.20 | 0.20 | 94 | 1007.4 |
| 20260507012554 | 15 | 146 | 1.6 | 3.2 | 0.00 | 0.20 | 0.20 | 94 | 1007.8 |
| 20260507012049 | 15 | 344 | 3.2 | 3.2 | 0.00 | 0.20 | 0.20 | 93 | 1007.5 |
| 20260507011547 | 15 | 242 | 8.0 | 12.9 | 0.00 | 0.20 | 0.20 | 93 | 1007.7 |
| 20260507011038 | 15 | 334 | 4.8 | 6.4 | 0.00 | 0.20 | 0.20 | 94 | 1007.8 |
| 20260507010538 | 15 | 272 | 6.4 | 9.7 | 0.00 | 0.20 | 0.20 | 94 | 1007.8 |
| 20260507010034 | 15 | 266 | 1.6 | 3.2 | 0.00 | 0.20 | 0.20 | 95 | 1007.8 |
| 20260507005532 | 15 | 283 | 6.4 | 11.3 | 0.00 | 0.20 | 0.20 | 95 | 1007.8 |
| 20260507005028 | 15 | 200 | 6.4 | 9.7 | 0.00 | 0.20 | 0.20 | 95 | 1008.0 |
| 20260507004525 | 15 | 326 | 4.8 | 6.4 | 0.00 | 0.20 | 0.20 | 94 | 1007.9 |
| 20260507004023 | 15 | 355 | 3.2 | 4.8 | 0.00 | 0.20 | 0.20 | 94 | 1007.9 |
| 20260507003518 | 15 | 46 | 4.8 | 4.8 | 0.00 | 0.20 | 0.20 | 94 | 1007.7 |
| 20260507003013 | 15 | 229 | 6.4 | 11.3 | 0.00 | 0.20 | 0.20 | 94 | 1007.8 |
| 20260507002510 | 15 | 238 | 6.4 | 11.3 | 0.00 | 0.20 | 0.20 | 94 | 1007.8 |
| 20260507002006 | 15 | 351 | 3.2 | 4.8 | 0.00 | 0.20 | 0.20 | 95 | 1007.7 |
| 20260507001503 | 15 | 253 | 8.0 | 9.7 | 0.00 | 0.20 | 0.20 | 96 | 1007.6 |
| 20260507001000 | 15 | 136 | 4.8 | 6.4 | 0.00 | 0.20 | 0.20 | 96 | 1007.6 |
| 20260507000456 | 15 | 316 | 6.4 | 9.7 | 0.00 | 0.20 | 0.20 | 96 | 1007.6 |
| 20260506235952 | 15 | 241 | 3.2 | 6.4 | 0.00 | 0.20 | 0.20 | 96 | 1007.3 |
| 20260506235450 | 15 | 342 | 6.4 | 6.4 | 0.00 | 0.20 | 0.20 | 95 | 1007.3 |
| 20260506234945 | 15 | 68 | 6.4 | 9.7 | 0.00 | 0.20 | 0.20 | 94 | 1007.2 |
| 20260506234443 | 15 | 76 | 4.8 | 6.4 | 0.00 | 0.20 | 0.20 | 94 | 1007.3 |
| 20260506233940 | 15 | 188 | 6.4 | 11.3 | 0.00 | 0.20 | 0.20 | 94 | 1007.5 |
| 20260506233436 | 15 | 264 | 4.8 | 4.8 | 0.00 | 0.20 | 0.20 | 94 | 1007.7 |
| 20260506232933 | 15 | 225 | 6.4 | 11.3 | 0.00 | 0.20 | 0.20 | 94 | 1007.5 |
| 20260506232429 | 15 | 117 | 3.2 | 3.2 | 0.00 | 0.20 | 0.20 | 94 | 1007.6 |
| 20260506231925 | 16 | 0 | 1.6 | 1.6 | 0.00 | 0.20 | 0.20 | 93 | 1007.4 |
| 20260506231423 | 16 | 216 | 1.6 | 1.6 | 0.00 | 0.20 | 0.20 | 92 | 1007.5 |
| 20260506230920 | 16 | 206 | 3.2 | 4.8 | 0.00 | 0.20 | 0.20 | 90 | 1007.4 |
| 20260506230416 | 16 | 230 | 6.4 | 9.7 | 0.00 | 0.20 | 0.20 | 90 | 1007.3 |
| 20260506225913 | 16 | 89 | 4.8 | 6.4 | 0.00 | 0.20 | 0.20 | 90 | 1007.3 |
| 20260506225410 | 16 | 205 | 6.4 | 9.7 | 0.00 | 0.20 | 0.20 | 92 | 1007.3 |
| 20260506224907 | 16 | 213 | 3.2 | 6.4 | 0.00 | 0.20 | 0.20 | 93 | 1007.2 |
| 20260506224405 | 16 | 297 | 3.2 | 3.2 | 0.00 | 0.20 | 0.20 | 92 | 1007.2 |
| 20260506223900 | 16 | 228 | 1.6 | 3.2 | 0.00 | 0.20 | 0.20 | 92 | 1007.1 |
| 20260506223356 | 16 | 330 | 3.2 | 3.2 | 0.00 | 0.20 | 0.20 | 92 | 1007.3 |
| 20260506222853 | 16 | 233 | 6.4 | 6.4 | 0.00 | 0.20 | 0.20 | 92 | 1007.2 |
| 20260506222349 | 16 | 233 | 6.4 | 6.4 | 0.00 | 0.20 | 0.20 | 91 | 1007.2 |
| 20260506221847 | 16 | 311 | 3.2 | 3.2 | 0.00 | 0.20 | 0.20 | 94 | 1007.2 |
| 20260506221344 | 16 | 2 | 1.6 | 1.6 | 0.00 | 0.20 | 0.20 | 93 | 1007.3 |